Regional Weather Roundup
Issued by NWS

Home | Current Version | Previous Version | Text Only | Print | Product List | Glossary On
Versions: 1 2 3 4 5 6 7 8 9 10 11 12 13 14 15 16 17 18 19 20 21 22 23 24 25 26 27 28 29 30 31 32 33 34 35 36 37 38 39 40 41 42 43 44 45 46 47 48 49 50
000
ASUS43 KLSX 311110
RWRMO

WEATHER SUMMARY FOR MISSOURI
NATIONAL WEATHER SERVICE SPRINGFIELD MO
600 AM CDT WED AUG 31 2016

NOTE: "FAIR" INDICATES FEW OR NO CLOUDS BELOW 12,000 FEET WITH NO
       SIGNIFICANT WEATHER AND/OR OBSTRUCTIONS TO VISIBILITY.
       CURRENT SKY AND/OR WEATHER CONDITIONS ARE NOT AVAILABLE FOR
       CHILLICOTHE AND FARMINGTON.

MOZ001>031-035>038-043-044-053-054-311200-
...NORTHERN AND WESTERN MISSOURI...

CITY           SKY/WX    TMP DP  RH WIND       PRES   REMARKS
KANSAS CTY INT LGT RAIN  69  67  93 N3        30.11F
KANSAS C DTWN  LGT RAIN  71  69  93 CALM      30.10S
LEE`S SUMMIT   CLOUDY    72  69  90 N7        30.11S
ST JOSEPH      CLOUDY    72  70  93 N3        30.12R
CHILLICOTHE      N/A     73  71  93 CALM      30.11S
KIRKSVILLE     CLOUDY    71  69  93 N8        30.11R

$$
MOZ066>068-077>081-088>096-101>105-311200-
...SOUTHWEST MISSOURI...

CITY           SKY/WX    TMP DP  RH WIND       PRES   REMARKS
SPRINGFIELD    CLOUDY    72  68  87 N6        30.09S
JOPLIN         CLOUDY    72  70  93 CALM      30.08F
BRANSON          N/A     68  68 100 CALM      30.10  FOG

$$
MOZ032>034-039>042-045>050-055>058-069>072-311200-
...CENTRAL MISSOURI...

CITY           SKY/WX    TMP DP  RH WIND       PRES   REMARKS
COLUMBIA       CLOUDY    70  69  97 NW3       30.09S
JEFFERSON CITY CLOUDY    71  70  96 CALM      30.08S FOG
ROLLA          FOG       68  68 100 CALM      30.08S VSB 1/2
SEDALIA        CLOUDY    72  70  93 W3        30.11S FOG
WHITEMAN AFB   MOCLDY    71  71 100 NW1       30.08F
OSAGE BEACH    RAIN      72  72 100 CALM      30.10S FOG

$$
MOZ051-052-059>065-311200-
...EAST CENTRAL MISSOURI...

CITY           SKY/WX    TMP DP  RH WIND       PRES   REMARKS
ST LOUIS INTL  CLOUDY    72  69  90 CALM      30.07R
SPIRIT OF STL  CLOUDY    70  70 100 W3        30.06S FOG
ST CHARLES     CLOUDY    70  70 100 CALM      30.05S FOG

$$
MOZ072>076-082>087-097>100-106>115-311200-
...SOUTH CENTRAL AND SOUTHEAST MISSOURI...

CITY           SKY/WX    TMP DP  RH WIND       PRES   REMARKS
CAPE GIRARDEAU NOT AVBL
FARMINGTON     FOG       66  66 100 CALM      30.08S VSB 1/2
POPLAR BLUFF   CLEAR     71  69  93 NW3       30.02F
WEST PLAINS    CLEAR     69  65  86 CALM      30.10S

$$



USA.gov is the U.S. government's official web portal to all federal, state and local government web resources and services.